Regional Weather Roundup
Issued by NWS

Home | Current Version | Previous Version | Graphics & Text | Print | Product List | Glossary On
Versions: 1 2 3 4 5 6 7 8 9 10 11 12 13 14 15 16 17 18 19 20 21 22 23 24 25 26 27 28
000
ASUS45 KSLC 220410
RWRUT

UTAH REGIONAL WEATHER ROUNDUP
NATIONAL WEATHER SERVICE SALT LAKE CITY UT
1000 PM MDT WED JUN 21 2017

UTZ001>011-023>025-220500-

NORTHERN UTAH

CITY           SKY/WX    TMP DP  RH WIND       PRES   REMARKS
BRIGHAM CITY   MOCLDY    80  40  23 NW10      29.93R
HILL AFB       MOCLDY    83  50  32 N10       29.96R
LOGAN          PTCLDY    71  55  56 NW8       29.95R
OGDEN          MOCLDY    81  51  35 N8        29.93R
SALT LAKE CITY MOCLDY    88  57  35 NW13      29.89R
TOOELE VALLEY  MOCLDY    75  54  46 S3        29.94R
WENDOVER         N/A     84  46  26 N16G25    29.89F
HEBER CITY     MOCLDY    70  45  40 CALM      29.99R
WEST JORDAN    PTCLDY    84  58  40 W12       29.94R

$$

UTZ011>015-024>027-220500-

CENTRAL/NORTHEAST UTAH

CITY           SKY/WX    TMP DP  RH WIND       PRES   REMARKS
PROVO AIRPORT  PTCLDY    84  51  31 NW16      29.90R
MOAB/CANYONLAN PTCLDY    84  27  12 SW5       29.84S
DELTA          MOCLDY    88  32  13 NE14      29.86R
PRICE          MOCLDY    84  29  13 N9        29.99F
ROOSEVELT      CLOUDY    79  45  29 CALM      29.96R
VERNAL         CLEAR     70  50  49 W7        29.95R

$$

UTZ013>016-019>022-027-220500-

SOUTHERN UTAH

CITY           SKY/WX    TMP DP  RH WIND       PRES   REMARKS
BRYCE CANYON   CLEAR     60  30  32 CALM      30.21R
CEDAR CITY     CLEAR     82  23  11 S9        30.00R
MILFORD        CLEAR     78  30  17 S8        29.91R
ST GEORGE      MOCLDY    95  26   8 S3        29.74R
HANKSVILLE     PTCLDY    90  30  12 CALM      29.87R
BLANDING       CLEAR     73  39  29 N9        30.07R

$$

REGIONAL REPORTS     COLORADO/ARIZONA

CITY           SKY/WX    TMP DP  RH WIND       PRES   REMARKS
CRAIG, CO      CLOUDY    67  44  43 SE3       30.06S
GRAND JUNCTION CLOUDY    86  34  15 VRB5      29.91R
RIFLE, CO      PTCLDY    78  42  27 SE10      30.01S
MONTROSE, CO   CLEAR     80  36  20 SE8       30.03R
CORTEZ, CO     CLEAR     67  44  43 NE10      30.03R
COLORADO CITY    N/A     81  30  16 N5        29.97R
PAGE, AZ       CLEAR     97  28   8 W7        29.84R HX  91
GRAND CANYON   CLEAR     73  27  18 SW6       30.13R
KINGMAN, AZ    CLEAR     92  30  11 SW13      29.83R
FLAGSTAFF, AZ  CLEAR     79  25  13 W7        30.16R

$$

REGIONAL REPORTS    NEVADA/IDAHO/WYOMING

CITY           SKY/WX    TMP DP  RH WIND       PRES   REMARKS
LAS VEGAS, NV  CLEAR    104  20   5 SW6       29.67R HX  96
ELY, NY        MOCLDY    82  34  17 NW10G22   30.04R
ELKO, NV       PTCLDY    81  42  25 N13       30.04R
POCATELLO, ID  CLOUDY    70  37  29 S13G23    29.97R
BURLEY, ID     CLEAR     70  32  24 W21       29.96R
FORT BRIDGER,    N/A     69  46  44 W5        30.16S
EVANSTON, WY   CLEAR     68  49  50 NW9       30.15R
ROCK SPRINGS,  CLOUDY    72  42  34 W13       30.08R
KEMMERER, WY     N/A     64  41  42 W9        30.15R

$$




USA.gov is the U.S. government's official web portal to all federal, state and local government web resources and services.